Terminal Aerodrome Forecast
Issued by NWS Portland, OR

Home | Current Version | Previous Version | Text Only | Print | Product List | Glossary On
Versions: 1 2 3 4 5 6 7 8 9 10 11 12 13 14 15 16 17 18 19 20 21 22 23 24 25 26 27 28 29 30 31 32 33 34 35 36 37 38 39 40 41 42 43 44 45 46 47 48 49 50
903
FTUS46 KPQR 061736
TAFPDX
TAF
KPDX 061736Z 0618/0718 35005KT P6SM SCT025 BKN035
     FM062100 04006KT P6SM BKN030
     FM070000 05004KT P6SM SKC=

USA.gov is the U.S. government's official web portal to all federal, state and local government web resources and services.